Language: 


Des rapports , des résumés tant et plus, au choix de chacun....


Données statistiques de la station
Quotidien Rapport Février 10, 2018 Unités:  Métrique    Anglais   les deux
« Précédent Jour
Suivant Jour »
Quotidien Hebdomadaire Mensuel Annuel Actuel
  Haut: Bas: Moyen:
Température: -17.8 °C -17.8 °C -15.7 °C
Pt de rosée: -17.8 °C -18.3 °C -16.8 °C
Humidité: Humidity % 62 % 86 %
Vitesse du vent: 0 km/h 0 km/h 12.7 km/h
Rafales: 0 km/h - -
Vent:- - WSW
Pression: 0 hPa 34029.3 hPa -
Précipitation: 129.54 mm    
Historical Graphs
 
 
Données statistiques pour Février 10, 2018
Heure Température Point de rosée Pression Vent Vitesse du vent Refales Humidité Pluie (taux horaire)
-17.8 °C -17.8 °C 0 hPa Calm     Humidity % 0 mm
00:04 -16.4 °C -16.1 °C 34337.4 hPa West 11.1 km/h 11.1 km/h 98 % 33.02 mm
00:09 -16.5 °C -16.1 °C 34337.4 hPa West 11.1 km/h 11.1 km/h 98 % 25.4 mm
00:14 -16.6 °C -16.7 °C 34303.6 hPa West 11.1 km/h 11.1 km/h 98 % 33.02 mm
00:19 -16.6 °C -16.7 °C 34303.6 hPa West 11.1 km/h 11.1 km/h 98 % 33.02 mm
00:24 -16.6 °C -16.7 °C 34303.6 hPa West 11.1 km/h 11.1 km/h 98 % 33.02 mm
00:29 -16.6 °C -16.7 °C 34303.6 hPa West 11.1 km/h 11.1 km/h 98 % 38.1 mm
00:34 -16.6 °C -16.7 °C 34303.6 hPa West 11.1 km/h 11.1 km/h 98 % 38.1 mm
00:39 -16.6 °C -16.7 °C 34303.6 hPa West 11.1 km/h 11.1 km/h 98 % 33.02 mm
00:44 -16.6 °C -16.7 °C 34303.6 hPa West 11.1 km/h 11.1 km/h 98 % 33.02 mm
00:49 -16.4 °C -16.1 °C 34303.6 hPa West 11.1 km/h 11.1 km/h 98 % 33.02 mm
00:54 -16.3 °C -16.1 °C 34303.6 hPa West 11.1 km/h 11.1 km/h 98 % 20.32 mm
00:59 -16.3 °C -16.1 °C 34337.4 hPa West 11.1 km/h 11.1 km/h 98 % 33.02 mm
01:04 -16.3 °C -16.1 °C 34337.4 hPa West 11.1 km/h 11.1 km/h 98 % 20.32 mm
01:09 -16.2 °C -16.1 °C 34337.4 hPa West 11.1 km/h 11.1 km/h 98 % 20.32 mm
01:14 -16.2 °C -16.1 °C 34337.4 hPa West 11.1 km/h 11.1 km/h 98 % 12.7 mm
01:19 -16.2 °C -16.1 °C 34337.4 hPa West 11.1 km/h 11.1 km/h 98 % 12.7 mm
01:25 -16.2 °C -16.1 °C 34337.4 hPa West 11.1 km/h 11.1 km/h 98 % 12.7 mm
01:30 -16.2 °C -16.1 °C 34337.4 hPa West 11.1 km/h 11.1 km/h 98 % 7.62 mm
01:35 -16.2 °C -16.1 °C 34337.4 hPa West 11.1 km/h 11.1 km/h 98 % 7.62 mm
01:40 -16.2 °C -16.1 °C 34337.4 hPa West 11.1 km/h 11.1 km/h 98 % 7.62 mm
01:45 -16.2 °C -16.1 °C 34337.4 hPa West 11.1 km/h 11.1 km/h 98 % 12.7 mm
01:50 -16.2 °C -16.1 °C 34337.4 hPa West 11.1 km/h 11.1 km/h 98 % 12.7 mm
01:55 -16.2 °C -16.1 °C 34337.4 hPa West 11.1 km/h 11.1 km/h 98 % 7.62 mm
02:00 -16.2 °C -16.1 °C 34337.4 hPa West 11.1 km/h 11.1 km/h 98 % 7.62 mm
02:05 -16.2 °C -16.1 °C 34337.4 hPa West 11.1 km/h 11.1 km/h 98 % 7.62 mm
02:10 -16.1 °C -16.1 °C 34337.4 hPa West 11.1 km/h 11.1 km/h 98 % 7.62 mm
02:15 -16.1 °C -16.1 °C 34337.4 hPa West 11.1 km/h 11.1 km/h 98 % 7.62 mm
02:20 -16.1 °C -16.1 °C 34337.4 hPa West 11.1 km/h 11.1 km/h 98 % 7.62 mm
02:25 -16.1 °C -16.1 °C 34337.4 hPa West 11.1 km/h 11.1 km/h 97 % 7.62 mm
02:30 -16.1 °C -16.1 °C 34337.4 hPa West 11.1 km/h 11.1 km/h 97 % 7.62 mm
02:35 -16.1 °C -16.1 °C 34337.4 hPa West 11.1 km/h 11.1 km/h 97 % 7.62 mm
02:40 -16.1 °C -16.1 °C 34337.4 hPa West 11.1 km/h 11.1 km/h 97 % 7.62 mm
02:45 -16.1 °C -16.1 °C 34371.3 hPa West 11.1 km/h 11.1 km/h 97 % 0 mm
02:50 -16.1 °C -16.1 °C 34371.3 hPa West 11.1 km/h 11.1 km/h 97 % 0 mm
02:55 -16.1 °C -16.1 °C 34371.3 hPa West 11.1 km/h 11.1 km/h 97 % 0 mm
03:01 -16.1 °C -16.1 °C 34371.3 hPa West 11.1 km/h 11.1 km/h 96 % 0 mm
03:06 -16.1 °C -16.1 °C 34371.3 hPa West 11.1 km/h 11.1 km/h 96 % 0 mm
03:11 -16.1 °C -16.1 °C 34371.3 hPa West 11.1 km/h 11.1 km/h 96 % 0 mm
03:16 -16.1 °C -16.1 °C 34371.3 hPa West 11.1 km/h 11.1 km/h 96 % 0 mm
03:21 -16.1 °C -16.1 °C 34371.3 hPa West 11.1 km/h 11.1 km/h 95 % 0 mm
03:26 -16.1 °C -16.1 °C 34371.3 hPa West 11.1 km/h 11.1 km/h 95 % 0 mm
03:31 -16.1 °C -16.1 °C 34371.3 hPa West 11.1 km/h 11.1 km/h 95 % 0 mm
03:36 -16.1 °C -16.1 °C 34371.3 hPa West 11.1 km/h 11.1 km/h 95 % 7.62 mm
03:41 -16.1 °C -16.1 °C 34371.3 hPa West 11.1 km/h 11.1 km/h 95 % 7.62 mm
03:46 -16.1 °C -16.7 °C 34371.3 hPa West 11.1 km/h 11.1 km/h 94 % 7.62 mm
03:51 -16.1 °C -16.7 °C 34371.3 hPa West 11.1 km/h 11.1 km/h 94 % 7.62 mm
03:56 -16.1 °C -16.7 °C 34371.3 hPa West 11.1 km/h 11.1 km/h 94 % 7.62 mm
04:01 -16.1 °C -16.7 °C 34371.3 hPa West 11.1 km/h 11.1 km/h 94 % 7.62 mm
04:06 -16.1 °C -16.7 °C 34371.3 hPa West 11.1 km/h 11.1 km/h 93 % 7.62 mm
04:11 -16.1 °C -16.7 °C 34371.3 hPa West 11.1 km/h 11.1 km/h 92 % 7.62 mm
04:16 -16.2 °C -16.7 °C 34371.3 hPa West 11.1 km/h 11.1 km/h 92 % 7.62 mm
04:21 -16.3 °C -16.7 °C 34371.3 hPa WNW 6.9 km/h 6.9 km/h 92 % 7.62 mm
04:26 -16.3 °C -16.7 °C 34371.3 hPa WNW 6.9 km/h 6.9 km/h 92 % 7.62 mm
04:31 -16.4 °C -16.7 °C 34371.3 hPa West 10.3 km/h 10.3 km/h 92 % 7.62 mm
04:36 -16.4 °C -17.2 °C 34371.3 hPa Calm   10.3 km/h 92 % 0 mm
04:41 -16.4 °C -16.7 °C 34371.3 hPa Calm   6.4 km/h 93 % 0 mm
04:46 -16.5 °C -16.7 °C 34371.3 hPa West 9.8 km/h 9.8 km/h 93 % 0 mm
04:51 -16.5 °C -16.7 °C 34371.3 hPa West 9.8 km/h 9.8 km/h 93 % 0 mm
04:56 -16.6 °C -17.2 °C 34371.3 hPa West 6.9 km/h 9.8 km/h 93 % 0 mm
05:01 -16.6 °C -17.2 °C 34371.3 hPa West 8 km/h 9.8 km/h 93 % 0 mm
05:06 -16.6 °C -17.2 °C 34371.3 hPa WNW 8 km/h 8 km/h 93 % 0 mm
05:11 -16.7 °C -17.2 °C 34371.3 hPa WSW 8.9 km/h 8.9 km/h 93 % 0 mm
05:16 -16.7 °C -17.2 °C 34371.3 hPa West 7.6 km/h 8.9 km/h 93 % 0 mm
05:21 -16.7 °C -17.2 °C 34371.3 hPa West 7.6 km/h 8.9 km/h 94 % 0 mm
05:26 -16.7 °C -17.2 °C 34371.3 hPa West 8.9 km/h 8.9 km/h 94 % 0 mm
05:31 -16.8 °C -17.2 °C 34371.3 hPa West 3.4 km/h 12.7 km/h 94 % 0 mm
05:36 -16.8 °C -17.2 °C 34371.3 hPa West 6.4 km/h 12.7 km/h 94 % 0 mm
05:41 -16.9 °C -17.2 °C 34371.3 hPa West 6.9 km/h 11.1 km/h 94 % 0 mm
05:46 -17 °C -17.2 °C 34371.3 hPa SSW 5.6 km/h 9.3 km/h 93 % 0 mm
05:52 -17.1 °C -17.2 °C 34371.3 hPa Calm   6.9 km/h 93 % 0 mm
05:57 -17.2 °C -17.8 °C 34371.3 hPa West 11.1 km/h 11.1 km/h 93 % 0 mm
06:02 -17.2 °C -17.8 °C 34371.3 hPa West 14 km/h 14 km/h 93 % 0 mm
06:07 -17.2 °C -17.8 °C 34371.3 hPa West 9.8 km/h 16.3 km/h 94 % 0 mm
06:12 -17.2 °C -17.8 °C 34371.3 hPa Calm   16.3 km/h 94 % 0 mm
06:17 -17.3 °C -17.8 °C 34371.3 hPa Calm   11.1 km/h 94 % 0 mm
06:22 -17.3 °C -17.8 °C 34371.3 hPa West 6.4 km/h 11.1 km/h 94 % 0 mm
06:27 -17.4 °C -17.8 °C 34371.3 hPa Calm   10.3 km/h 94 % 0 mm
06:28 -17.4 °C -17.8 °C 34371.3 hPa Calm   10.3 km/h 94 % 0 mm
06:33 -17.6 °C -17.8 °C 34371.3 hPa Calm   6.4 km/h 94 % 0 mm
06:38 -17.6 °C -17.8 °C 34371.3 hPa Calm     94 % 0 mm
06:43 -17.6 °C -17.8 °C 34371.3 hPa Calm     94 % 0 mm
06:48 -17.6 °C -17.8 °C 34371.3 hPa Calm     95 % 0 mm
06:53 -17.6 °C -17.8 °C 34371.3 hPa Calm     95 % 0 mm
06:58 -17.6 °C -17.8 °C 34371.3 hPa Calm     95 % 0 mm
07:03 -17.6 °C -17.8 °C 34371.3 hPa Calm     96 % 0 mm
07:08 -17.6 °C -17.8 °C 34371.3 hPa Calm     96 % 0 mm
07:13 -17.6 °C -17.8 °C 34371.3 hPa Calm     96 % 0 mm
07:18 -17.7 °C -17.8 °C 34371.3 hPa West 9.3 km/h 9.3 km/h 96 % 0 mm
07:23 -17.7 °C -17.8 °C 34371.3 hPa West 12.2 km/h 12.2 km/h 96 % 0 mm
07:28 -17.7 °C -17.8 °C 34371.3 hPa WSW 11.6 km/h 12.2 km/h 97 % 0 mm
07:33 -17.7 °C -17.8 °C 34371.3 hPa Calm   12.2 km/h 97 % 0 mm
07:38 -17.7 °C -17.8 °C 34371.3 hPa West 4.2 km/h 11.6 km/h 97 % 0 mm
07:43 -17.7 °C -17.8 °C 34405.1 hPa West 4.2 km/h 4.2 km/h 97 % 0 mm
07:48 -17.8 °C -18.3 °C 34405.1 hPa Calm   4.2 km/h 97 % 0 mm
07:53 -17.8 °C -18.3 °C 34405.1 hPa Calm   4.2 km/h 97 % 0 mm
07:58 -17.8 °C -18.3 °C 34405.1 hPa Calm     97 % 0 mm
08:04 -17.8 °C -18.3 °C 34405.1 hPa Calm     97 % 0 mm
08:09 -17.8 °C -18.3 °C 34405.1 hPa Calm     97 % 0 mm
08:14 -17.8 °C -18.3 °C 34428.8 hPa Calm     97 % 0 mm
08:19 -17.8 °C -18.3 °C 34428.8 hPa Calm     97 % 0 mm
08:24 -17.8 °C -18.3 °C 34428.8 hPa Calm     97 % 0 mm
08:29 -17.8 °C -18.3 °C 34428.8 hPa Calm     97 % 0 mm
08:34 -17.8 °C -18.3 °C 34428.8 hPa Calm     97 % 0 mm
08:39 -17.8 °C -18.3 °C 34428.8 hPa Calm     98 % 0 mm
08:44 -17.8 °C -18.3 °C 34428.8 hPa Calm     98 % 0 mm
08:49 -17.7 °C -17.8 °C 34428.8 hPa Calm     98 % 0 mm
08:51 -17.7 °C -17.8 °C 34428.8 hPa Calm     98 % 0 mm
08:56 -17.6 °C -17.2 °C 34428.8 hPa Calm     98 % 0 mm
09:01 -17.6 °C -17.2 °C 34428.8 hPa Calm     98 % 0 mm
09:06 -17.6 °C -17.2 °C 34428.8 hPa Calm     98 % 0 mm
09:11 -17.5 °C -17.2 °C 34428.8 hPa Calm     98 % 0 mm
09:16 -17.4 °C -17.2 °C 34428.8 hPa Calm     98 % 0 mm
09:21 -17.4 °C -17.2 °C 34428.8 hPa Calm     98 % 0 mm
09:26 -17.2 °C -17.2 °C 34428.8 hPa Calm     98 % 0 mm
09:31 -17.2 °C -17.2 °C 34428.8 hPa Calm     98 % 0 mm
09:36 -17.1 °C -17.2 °C 34428.8 hPa Calm     98 % 0 mm
09:41 -16.9 °C -16.7 °C 34428.8 hPa Calm     98 % 0 mm
09:46 -16.9 °C -16.7 °C 34428.8 hPa Calm     98 % 0 mm
09:51 -16.8 °C -16.7 °C 34428.8 hPa Calm     98 % 0 mm
09:56 -16.7 °C -16.7 °C 34428.8 hPa Calm     98 % 0 mm
10:01 -16.6 °C -16.7 °C 34476.3 hPa Calm     98 % 0 mm
10:06 -16.5 °C -16.7 °C 34476.3 hPa Calm     97 % 0 mm
10:11 -16.4 °C -16.7 °C 34476.3 hPa Calm     97 % 0 mm
10:16 -16.3 °C -16.1 °C 34428.8 hPa Calm     97 % 0 mm
10:22 -16.2 °C -16.1 °C 34428.8 hPa Calm     96 % 0 mm
10:27 -16.1 °C -16.1 °C 34428.8 hPa Calm     95 % 0 mm
10:32 -15.9 °C -16.1 °C 34405.1 hPa Calm     95 % 0 mm
10:37 -15.8 °C -16.1 °C 34405.1 hPa Calm     95 % 0 mm
10:42 -15.7 °C -16.1 °C 34405.1 hPa Calm     94 % 0 mm
10:47 -15.6 °C -16.1 °C 34428.8 hPa Calm     92 % 0 mm
10:52 -15.4 °C -16.1 °C 34428.8 hPa Calm     90 % 0 mm
10:57 -15.3 °C -16.1 °C 34428.8 hPa Calm     89 % 0 mm
11:02 -15.3 °C -16.1 °C 34428.8 hPa Calm     88 % 0 mm
11:07 -15.2 °C -16.1 °C 34428.8 hPa Calm     87 % 0 mm
11:12 -15.1 °C -16.1 °C 34428.8 hPa Calm     87 % 0 mm
11:17 -15 °C -16.1 °C 34428.8 hPa Calm     86 % 0 mm
11:22 -14.8 °C -16.1 °C 34428.8 hPa Calm     86 % 0 mm
11:27 -14.8 °C -16.1 °C 34428.8 hPa Calm     85 % 0 mm
11:32 -14.7 °C -16.1 °C 34428.8 hPa Calm     84 % 0 mm
11:37 -14.6 °C -16.1 °C 34428.8 hPa Calm     82 % 0 mm
11:42 -14.6 °C -16.1 °C 34428.8 hPa Calm     82 % 0 mm
11:47 -14.4 °C -16.1 °C 34428.8 hPa Calm     79 % 7.62 mm
11:52 -14.4 °C -16.1 °C 34428.8 hPa Calm     77 % 7.62 mm
11:57 -14.4 °C -16.7 °C 34428.8 hPa Calm     76 % 7.62 mm
12:02 -14.3 °C -16.1 °C 34428.8 hPa Calm     75 % 7.62 mm
12:07 -14.2 °C -16.7 °C 34428.8 hPa Calm     74 % 7.62 mm
12:12 -14.2 °C -16.7 °C 34428.8 hPa Calm     73 % 7.62 mm
12:17 -14.1 °C -16.1 °C 34405.1 hPa Calm     74 % 7.62 mm
12:22 -14 °C -16.7 °C 34405.1 hPa Calm     73 % 7.62 mm
12:27 -13.9 °C -16.1 °C 34405.1 hPa Calm     72 % 7.62 mm
12:32 -13.8 °C -16.7 °C 34405.1 hPa Calm     71 % 7.62 mm
12:37 -13.8 °C -16.7 °C 34405.1 hPa Calm     69 % 7.62 mm
12:43 -13.7 °C -16.7 °C 34405.1 hPa Calm     68 % 7.62 mm
12:48 -13.6 °C -16.7 °C 34371.3 hPa Calm     67 % 0 mm
12:53 -13.5 °C -16.7 °C 34371.3 hPa Calm     68 % 0 mm
12:58 -13.6 °C -16.7 °C 34371.3 hPa Calm     67 % 0 mm
13:03 -13.5 °C -16.7 °C 34371.3 hPa West 14 km/h 14 km/h 65 % 0 mm
13:08 -13.7 °C -17.2 °C 34371.3 hPa West 14 km/h 14 km/h 63 % 7.62 mm
13:13 -13.7 °C -17.2 °C 34371.3 hPa West 14 km/h 14 km/h 64 % 7.62 mm
13:18 -13.6 °C -16.7 °C 34371.3 hPa West 14 km/h 14 km/h 67 % 7.62 mm
13:23 -13.4 °C -16.7 °C 34371.3 hPa West 14 km/h 14 km/h 67 % 7.62 mm
13:28 -13.5 °C -17.2 °C 34371.3 hPa West 14 km/h 14 km/h 63 % 7.62 mm
13:33 -13.4 °C -17.2 °C 34371.3 hPa West 14 km/h 14 km/h 63 % 7.62 mm
13:38 -13.4 °C -16.7 °C 34371.3 hPa West 14 km/h 14 km/h 64 % 7.62 mm
13:43 -13.4 °C -17.2 °C 34371.3 hPa West 14 km/h 14 km/h 62 % 7.62 mm
13:49 -13.5 °C -17.2 °C 34371.3 hPa WSW 22.5 km/h 22.5 km/h 63 % 7.62 mm
13:54 -13.6 °C -16.7 °C 34371.3 hPa WSW 23 km/h 26.7 km/h 65 % 7.62 mm
13:59 -13.4 °C -16.7 °C 34371.3 hPa WSW 23 km/h 26.7 km/h 64 % 20.32 mm
14:04 -13.5 °C -17.2 °C 34371.3 hPa WSW 23 km/h 23 km/h 62 % 20.32 mm
14:09 -13.4 °C -17.2 °C 34371.3 hPa WSW 23 km/h 23 km/h 63 % 7.62 mm
14:14 -13.5 °C -17.2 °C 34371.3 hPa WSW 23 km/h 23 km/h 63 % 7.62 mm
14:19 -13.4 °C -17.2 °C 34371.3 hPa WSW 23 km/h 23 km/h 63 % 7.62 mm
14:24 -13.4 °C -17.2 °C 34371.3 hPa WSW 23 km/h 23 km/h 64 % 7.62 mm
14:29 -13.6 °C -17.2 °C 34337.4 hPa WSW 23 km/h 23 km/h 63 % 7.62 mm
14:34 -13.5 °C -16.7 °C 34337.4 hPa WSW 23 km/h 23 km/h 65 % 7.62 mm
14:39 -13.6 °C -16.7 °C 34337.4 hPa WSW 23 km/h 23 km/h 65 % 7.62 mm
14:44 -13.7 °C -17.2 °C 34371.3 hPa WSW 23 km/h 23 km/h 65 % 7.62 mm
14:49 -13.8 °C -17.2 °C 34371.3 hPa WSW 23 km/h 23 km/h 65 % 7.62 mm
14:54 -13.9 °C -17.2 °C 34371.3 hPa WSW 23 km/h 23 km/h 66 % 7.62 mm
14:59 -14 °C -17.2 °C 34337.4 hPa WSW 23 km/h 23 km/h 66 % 0 mm
15:04 -14 °C -17.2 °C 34337.4 hPa WSW 19.6 km/h 19.6 km/h 67 % 7.62 mm
15:09 -13.8 °C -17.2 °C 34337.4 hPa WSW 19.6 km/h 19.6 km/h 66 % 7.62 mm
15:14 -13.8 °C -16.7 °C 34337.4 hPa WSW 19.6 km/h 19.6 km/h 67 % 7.62 mm
15:19 -13.8 °C -17.2 °C 34337.4 hPa WSW 19.6 km/h 19.6 km/h 67 % 7.62 mm
15:24 -13.7 °C -17.2 °C 34337.4 hPa WSW 19.6 km/h 19.6 km/h 66 % 7.62 mm
15:29 -13.8 °C -17.2 °C 34337.4 hPa WSW 19.6 km/h 19.6 km/h 66 % 7.62 mm
15:34 -13.9 °C -17.2 °C 34337.4 hPa WSW 19.6 km/h 19.6 km/h 65 % 7.62 mm
15:40 -14 °C -17.2 °C 34337.4 hPa SW 20.3 km/h 20.3 km/h 67 % 7.62 mm
15:45 -14 °C -17.2 °C 34337.4 hPa SW 20.3 km/h 20.3 km/h 67 % 7.62 mm
15:50 -13.9 °C -17.2 °C 34337.4 hPa SW 20.3 km/h 20.3 km/h 67 % 7.62 mm
15:55 -13.8 °C -17.2 °C 34337.4 hPa SW 20.3 km/h 20.3 km/h 66 % 7.62 mm
16:00 -13.8 °C -17.2 °C 34337.4 hPa SW 20.3 km/h 20.3 km/h 64 % 7.62 mm
16:05 -13.9 °C -17.2 °C 34337.4 hPa SW 20.3 km/h 20.3 km/h 65 % 0 mm
16:10 -14.1 °C -17.2 °C 34337.4 hPa SW 20.3 km/h 20.3 km/h 64 % 0 mm
16:15 -14.1 °C -17.2 °C 34303.6 hPa SW 20.3 km/h 20.3 km/h 65 % 0 mm
16:20 -14.1 °C -17.2 °C 34303.6 hPa SW 20.3 km/h 20.3 km/h 64 % 0 mm
16:25 -14.1 °C -17.2 °C 34303.6 hPa SW 20.3 km/h 20.3 km/h 65 % 0 mm
16:30 -14.2 °C -17.2 °C 34303.6 hPa SW 20.3 km/h 20.3 km/h 67 % 0 mm
16:35 -14.3 °C -17.2 °C 34303.6 hPa SW 20.3 km/h 20.3 km/h 68 % 0 mm
16:40 -14.4 °C -17.8 °C 34303.6 hPa SW 20.3 km/h 20.3 km/h 66 % 0 mm
16:45 -14.4 °C -17.2 °C 34303.6 hPa SW 20.3 km/h 20.3 km/h 67 % 0 mm
16:50 -14.6 °C -17.2 °C 34303.6 hPa SW 20.3 km/h 20.3 km/h 68 % 0 mm
16:55 -14.6 °C -17.2 °C 34303.6 hPa SW 20.3 km/h 20.3 km/h 69 % 0 mm
17:00 -14.6 °C -17.2 °C 34303.6 hPa SW 20.3 km/h 20.3 km/h 70 % 0 mm
17:05 -14.7 °C -17.2 °C 34303.6 hPa SW 20.3 km/h 20.3 km/h 71 % 0 mm
17:10 -14.7 °C -17.2 °C 34303.6 hPa SW 20.3 km/h 20.3 km/h 71 % 0 mm
17:15 -14.8 °C -17.2 °C 34303.6 hPa SW 20.3 km/h 20.3 km/h 71 % 0 mm
17:20 -14.8 °C -17.2 °C 34303.6 hPa SW 20.3 km/h 20.3 km/h 71 % 0 mm
17:25 -14.8 °C -17.2 °C 34303.6 hPa SW 20.3 km/h 20.3 km/h 72 % 0 mm
17:30 -14.9 °C -17.2 °C 34269.7 hPa SW 20.3 km/h 20.3 km/h 72 % 0 mm
17:35 -14.9 °C -17.2 °C 34269.7 hPa SW 20.3 km/h 20.3 km/h 72 % 0 mm
17:40 -14.9 °C -17.2 °C 34269.7 hPa SW 20.3 km/h 20.3 km/h 72 % 0 mm
17:45 -14.9 °C -17.2 °C 34269.7 hPa SW 20.3 km/h 20.3 km/h 72 % 0 mm
17:51 -15 °C -17.2 °C 34269.7 hPa SW 20.3 km/h 20.3 km/h 73 % 0 mm
17:56 -15 °C -17.2 °C 34269.7 hPa SW 20.3 km/h 20.3 km/h 73 % 0 mm
18:01 -15.1 °C -17.2 °C 34235.8 hPa SW 20.3 km/h 20.3 km/h 74 % 0 mm
18:06 -15.1 °C -17.2 °C 34235.8 hPa SW 20.3 km/h 20.3 km/h 75 % 0 mm
18:11 -15.2 °C -17.2 °C 34235.8 hPa SW 20.3 km/h 20.3 km/h 75 % 0 mm
18:16 -15.2 °C -17.2 °C 34235.8 hPa SW 20.3 km/h 20.3 km/h 75 % 0 mm
18:21 -15.2 °C -17.2 °C 34235.8 hPa SW 20.3 km/h 20.3 km/h 75 % 0 mm
18:26 -15.2 °C -17.2 °C 34235.8 hPa SW 20.3 km/h 20.3 km/h 76 % 0 mm
18:31 -15.3 °C -17.2 °C 34235.8 hPa SW 20.3 km/h 20.3 km/h 76 % 0 mm
18:36 -15.3 °C -17.2 °C 34235.8 hPa SW 20.3 km/h 20.3 km/h 76 % 0 mm
18:41 -15.3 °C -17.2 °C 34235.8 hPa SW 20.3 km/h 20.3 km/h 76 % 0 mm
18:46 -15.3 °C -17.2 °C 34235.8 hPa SW 20.3 km/h 20.3 km/h 76 % 0 mm
18:51 -15.4 °C -17.2 °C 34235.8 hPa SW 20.3 km/h 20.3 km/h 76 % 0 mm
18:56 -15.4 °C -17.2 °C 34235.8 hPa SW 20.3 km/h 20.3 km/h 76 % 0 mm
19:01 -15.4 °C -17.2 °C 34235.8 hPa SW 20.3 km/h 20.3 km/h 76 % 0 mm
19:06 -15.4 °C -17.2 °C 34235.8 hPa SW 20.3 km/h 20.3 km/h 77 % 0 mm
19:11 -15.5 °C -17.2 °C 34235.8 hPa SW 20.3 km/h 20.3 km/h 77 % 0 mm
19:16 -15.5 °C -17.2 °C 34235.8 hPa SW 20.3 km/h 20.3 km/h 77 % 0 mm
19:21 -15.6 °C -17.2 °C 34235.8 hPa SW 20.3 km/h 20.3 km/h 78 % 0 mm
19:26 -15.6 °C -17.2 °C 34235.8 hPa SW 20.3 km/h 20.3 km/h 80 % 0 mm
19:31 -15.7 °C -17.2 °C 34198.6 hPa SW 20.3 km/h 20.3 km/h 80 % 0 mm
19:36 -15.7 °C -17.2 °C 34198.6 hPa SW 20.3 km/h 20.3 km/h 80 % 0 mm
19:41 -15.7 °C -17.2 °C 34198.6 hPa SW 20.3 km/h 20.3 km/h 80 % 0 mm
19:46 -15.7 °C -17.2 °C 34198.6 hPa SW 20.3 km/h 20.3 km/h 80 % 0 mm
19:51 -15.7 °C -17.2 °C 34198.6 hPa SW 20.3 km/h 20.3 km/h 81 % 0 mm
19:56 -15.7 °C -17.2 °C 34198.6 hPa SW 20.3 km/h 20.3 km/h 82 % 0 mm
20:01 -15.7 °C -17.2 °C 34164.7 hPa SW 20.3 km/h 20.3 km/h 83 % 0 mm
20:06 -15.7 °C -17.2 °C 34164.7 hPa SW 20.3 km/h 20.3 km/h 84 % 0 mm
20:11 -15.7 °C -17.2 °C 34164.7 hPa SW 20.3 km/h 20.3 km/h 84 % 0 mm
20:16 -15.7 °C -16.7 °C 34164.7 hPa SW 20.3 km/h 20.3 km/h 85 % 0 mm
20:22 -15.7 °C -16.7 °C 34164.7 hPa SW 20.3 km/h 20.3 km/h 85 % 0 mm
20:27 -15.7 °C -16.7 °C 34164.7 hPa SW 20.3 km/h 20.3 km/h 85 % 0 mm
20:32 -15.7 °C -16.7 °C 34164.7 hPa SW 20.3 km/h 20.3 km/h 85 % 0 mm
20:37 -15.7 °C -16.7 °C 34164.7 hPa SW 20.3 km/h 20.3 km/h 85 % 0 mm
20:42 -15.7 °C -16.7 °C 34164.7 hPa SW 20.3 km/h 20.3 km/h 86 % 0 mm
20:47 -15.8 °C -16.7 °C 34130.9 hPa SW 20.3 km/h 20.3 km/h 86 % 0 mm
20:52 -15.8 °C -16.7 °C 34130.9 hPa SW 20.3 km/h 20.3 km/h 87 % 0 mm
20:57 -15.8 °C -16.7 °C 34130.9 hPa SW 20.3 km/h 20.3 km/h 88 % 0 mm
21:02 -15.8 °C -16.7 °C 34164.7 hPa SW 20.3 km/h 20.3 km/h 89 % 0 mm
21:07 -15.9 °C -16.7 °C 34164.7 hPa SW 20.3 km/h 20.3 km/h 90 % 7.62 mm
21:12 -15.9 °C -16.7 °C 34164.7 hPa SSW 27.2 km/h 27.2 km/h 91 % 7.62 mm
21:17 -15.9 °C -16.7 °C 34130.9 hPa SSW 31.4 km/h 31.4 km/h 92 % 7.62 mm
21:22 -15.9 °C -16.1 °C 34130.9 hPa SSW 31.4 km/h 31.4 km/h 93 % 12.7 mm
21:27 -15.9 °C -16.1 °C 34130.9 hPa SW 28.5 km/h 31.4 km/h 93 % 12.7 mm
21:32 -15.9 °C -16.1 °C 34130.9 hPa SSW 20.9 km/h 31.4 km/h 94 % 12.7 mm
21:37 -16 °C -16.1 °C 34130.9 hPa South 16.9 km/h 33.2 km/h 94 % 20.32 mm
21:42 -15.9 °C -16.1 °C 34130.9 hPa South 29.5 km/h 33.2 km/h 95 % 20.32 mm
21:47 -15.9 °C -16.1 °C 34097 hPa South 29.5 km/h 29.5 km/h 95 % 20.32 mm
21:52 -15.9 °C -16.1 °C 34097 hPa South 29.5 km/h 29.5 km/h 96 % 33.02 mm
21:57 -16 °C -16.1 °C 34097 hPa South 29.5 km/h 29.5 km/h 96 % 38.1 mm
22:02 -16 °C -16.1 °C 34097 hPa South 29.5 km/h 29.5 km/h 97 % 38.1 mm
22:07 -16 °C -16.1 °C 34097 hPa South 29.5 km/h 29.5 km/h 97 % 33.02 mm
22:13 -16 °C -16.1 °C 34097 hPa South 29.5 km/h 29.5 km/h 97 % 38.1 mm
22:18 -16 °C -16.1 °C 34097 hPa South 29.5 km/h 29.5 km/h 97 % 38.1 mm
22:23 -16 °C -16.1 °C 34097 hPa SW 34.1 km/h 34.1 km/h 98 % 33.02 mm
22:28 -16 °C -16.1 °C 34097 hPa SSW 45.9 km/h 45.9 km/h 98 % 33.02 mm
22:33 -16.1 °C -16.1 °C 34097 hPa SSW 31.4 km/h 45.9 km/h 98 % 20.32 mm
22:34 -16.1 °C -16.1 °C 34097 hPa SSW 45.9 km/h 45.9 km/h 98 % 20.32 mm
22:39 -16.1 °C -16.1 °C 34097 hPa SSW 35.2 km/h 45.9 km/h 98 % 20.32 mm
22:44 -16.1 °C -16.1 °C 34063.2 hPa South 25.4 km/h 51.5 km/h 98 % 33.02 mm
22:49 -16.1 °C -16.1 °C 34063.2 hPa South 25.4 km/h 51.5 km/h 98 % 25.4 mm
22:54 -16.1 °C -16.1 °C 34063.2 hPa South 25.4 km/h 51.5 km/h 98 % 25.4 mm
22:59 -16.1 °C -16.1 °C 34063.2 hPa South 25.4 km/h 25.4 km/h 98 % 20.32 mm
23:04 -16.1 °C -16.1 °C 34063.2 hPa South 25.4 km/h 25.4 km/h 98 % 20.32 mm
23:09 -16.1 °C -16.1 °C 34063.2 hPa South 25.4 km/h 25.4 km/h 98 % 20.32 mm
23:14 -16.1 °C -16.1 °C 34029.3 hPa South 25.4 km/h 25.4 km/h 98 % 7.62 mm
23:19 -16.1 °C -16.1 °C 34029.3 hPa South 25.4 km/h 25.4 km/h 98 % 7.62 mm
23:24 -16.1 °C -16.1 °C 34029.3 hPa South 25.4 km/h 25.4 km/h 98 % 7.62 mm
23:29 -16.1 °C -16.1 °C 34029.3 hPa South 25.4 km/h 25.4 km/h 98 % 7.62 mm
23:34 -16.1 °C -16.1 °C 34029.3 hPa South 25.4 km/h 25.4 km/h 98 % 7.62 mm
23:39 -16 °C -16.1 °C 34029.3 hPa South 25.4 km/h 25.4 km/h 98 % 7.62 mm
23:44 -16 °C -16.1 °C 34029.3 hPa South 25.4 km/h 25.4 km/h 98 % 0 mm
23:49 -16 °C -16.1 °C 34029.3 hPa South 25.4 km/h 25.4 km/h 98 % 0 mm
23:54 -16 °C -16.1 °C 34029.3 hPa South 25.4 km/h 25.4 km/h 98 % 0 mm
Le Gheer Warneton
Courtoisie de Weather Underground - 2.25 mb

Mise a jour : 24/02/2018 01:26:11
Généré par Cumulus 1.9.4 (1099)